This is the latest recevied weather packets stored in our database for station/object IK2ILW-4. If no packets are shown the sender has not sent any weather packets the latest 10 day(s).
| Time | Temp. | Humidity | Pressure | Rain* | Wind** | Luminosity | Snow |
|---|---|---|---|---|---|---|---|
| 1787388465 | 17.78° C | 74% | 1018.1 hPa | 0 mm | - | 538 W/m² | - |
| 1787388154 | 17.22° C | 77% | 1018.1 hPa | 0 mm | - | 626 W/m² | - |
| 1787387864 | 17.22° C | 76% | 1018.1 hPa | 0 mm | - | 615 W/m² | - |
| 1787387575 | 16.67° C | 77% | 1018.1 hPa | 0 mm | - | 606 W/m² | - |
| 1787387267 | 16.67° C | 75% | 1017.9 hPa | 0 mm | - | 596 W/m² | - |
| 1787386962 | 16.11° C | 76% | 1017.9 hPa | 0 mm | - | 582 W/m² | - |
| 1787386671 | 16.11° C | 76% | 1017.9 hPa | 0 mm | - | 575 W/m² | - |
| 1787386365 | 16.11° C | 77% | 1017.8 hPa | 0 mm | - | 564 W/m² | - |
| 1787386060 | 16.11° C | 78% | 1017.8 hPa | 0 mm | - | 554 W/m² | - |
| 1787385770 | 16.11° C | 76% | 1017.8 hPa | 0 mm | - | 540 W/m² | - |
| 1787385464 | 16.11° C | 76% | 1017.7 hPa | 0 mm | - | 531 W/m² | - |
| 1787385159 | 16.11° C | 73% | 1017.7 hPa | 0 mm | - | 519 W/m² | - |
| 1787384852 | 16.11° C | 74% | 1017.7 hPa | 0 mm | - | 508 W/m² | - |
| 1787384550 | 16.11° C | 73% | 1017.6 hPa | 0 mm | - | 499 W/m² | - |
| 1787384264 | 16.11° C | 73% | 1017.6 hPa | 0 mm | - | 490 W/m² | - |
| 1787383974 | 16.11° C | 72% | 1017.6 hPa | 0 mm | - | 482 W/m² | - |
| 1787383661 | 16.11° C | 73% | 1017.6 hPa | 0 mm | - | 469 W/m² | - |
| 1787383358 | 16.11° C | 72% | 1017.6 hPa | 0 mm | - | 450 W/m² | - |
| 1787383072 | 16.11° C | 71% | 1017.6 hPa | 0 mm | - | 443 W/m² | - |
| 1787382764 | 16.11° C | 72% | 1017.5 hPa | 0 mm | - | 401 W/m² | - |
| 1787382462 | 15.56° C | 73% | 1017.5 hPa | 0 mm | - | 334 W/m² | - |
| 1787382160 | 15.56° C | 74% | 1017.5 hPa | 0 mm | - | 253 W/m² | - |
| 1787381857 | 15.56° C | 74% | 1017.4 hPa | 0 mm | - | 262 W/m² | - |
| 1787381558 | 16.11° C | 73% | 1017.4 hPa | 0 mm | - | 243 W/m² | - |
| 1787381267 | 16.11° C | 72% | 1017.4 hPa | 0 mm | - | 267 W/m² | - |
* Rain since midnight (hover to see other rain measurements)
** Current wind speed in m/s (hover to see current wind gust speed)